BSW12B LKPR-LKKV

Flight info

Callsign BSW12B
Flight time 0h 24m
Altitude 8000
Route BALTU
Aircraft L410/M-SDFGRWY/S

Departure

Time 2026-04-23 16:33
Airport Václav Havel Airport Prague (LKPR)

Arrival

Time 2026-04-23 16:57
Airport Karlovy Vary Airport (LKKV)
Time Latitude Longitude Altitude Speed Heading
2026-04-23 16:07 50.09763 14.28583 1250 ft 0 kts 167°
2026-04-23 16:25 50.09760 14.28584 1250 ft 1 kts 167°
2026-04-23 16:25 50.09751 14.28588 1250 ft 3 kts 167°
2026-04-23 16:25 50.09745 14.28588 1250 ft 2 kts 194°
2026-04-23 16:26 50.09737 14.28553 1250 ft 4 kts 260°
2026-04-23 16:26 50.09733 14.28515 1250 ft 4 kts 261°
2026-04-23 16:26 50.09747 14.28472 1250 ft 6 kts 344°
2026-04-23 16:26 50.09802 14.28456 1250 ft 9 kts 350°
2026-04-23 16:27 50.09874 14.28434 1250 ft 11 kts 339°
2026-04-23 16:27 50.09930 14.28336 1250 ft 12 kts 303°
2026-04-23 16:27 50.09954 14.28265 1250 ft 5 kts 291°
2026-04-23 16:27 50.09976 14.28198 1250 ft 9 kts 297°
2026-04-23 16:28 50.10005 14.28082 1250 ft 13 kts 275°
2026-04-23 16:28 50.09995 14.27915 1250 ft 17 kts 262°
2026-04-23 16:28 50.09981 14.27740 1250 ft 15 kts 263°
2026-04-23 16:28 50.09966 14.27594 1250 ft 12 kts 259°
2026-04-23 16:29 50.09955 14.27477 1250 ft 9 kts 262°
2026-04-23 16:29 50.09946 14.27379 1250 ft 9 kts 262°
2026-04-23 16:29 50.09937 14.27272 1250 ft 10 kts 262°
2026-04-23 16:29 50.09927 14.27150 1250 ft 11 kts 262°
2026-04-23 16:30 50.09915 14.27029 1250 ft 11 kts 259°
2026-04-23 16:30 50.09902 14.26891 1250 ft 13 kts 262°
2026-04-23 16:30 50.09890 14.26757 1250 ft 11 kts 262°
2026-04-23 16:30 50.09884 14.26682 1250 ft 0 kts 262°
2026-04-23 16:32 50.09883 14.26666 1250 ft 5 kts 262°
2026-04-23 16:32 50.09874 14.26558 1250 ft 14 kts 263°
2026-04-23 16:32 50.09902 14.26398 1250 ft 21 kts 306°
2026-04-23 16:32 50.10165 14.25886 1289 ft 89 kts 305°
2026-04-23 16:33 50.10511 14.25070 1679 ft 97 kts 302°
2026-04-23 16:33 50.10866 14.24189 2120 ft 100 kts 298°
2026-04-23 16:33 50.11168 14.23219 2469 ft 101 kts 293°
2026-04-23 16:33 50.11466 14.22215 2799 ft 102 kts 296°
2026-04-23 16:34 50.11791 14.21171 2953 ft 122 kts 302°
2026-04-23 16:34 50.12338 14.20033 3177 ft 135 kts 318°
2026-04-23 16:34 50.13088 14.19169 3565 ft 134 kts 331°
2026-04-23 16:34 50.13905 14.18485 3954 ft 133 kts 335°
2026-04-23 16:35 50.14477 14.18078 4188 ft 134 kts 339°
2026-04-23 16:35 50.15637 14.17480 4749 ft 128 kts 347°
2026-04-23 16:35 50.16475 14.17215 5191 ft 122 kts 349°
2026-04-23 16:35 50.17254 14.16707 5571 ft 121 kts 321°
2026-04-23 16:36 50.17749 14.15640 5939 ft 120 kts 304°
2026-04-23 16:36 50.18201 14.14600 6320 ft 119 kts 306°
2026-04-23 16:36 50.18683 14.13520 6641 ft 122 kts 306°
2026-04-23 16:36 50.19177 14.12459 7011 ft 120 kts 308°
2026-04-23 16:37 50.19687 14.11409 7335 ft 122 kts 308°
2026-04-23 16:37 50.20185 14.10369 7674 ft 122 kts 307°
2026-04-23 16:37 50.20664 14.09266 7987 ft 123 kts 303°
2026-04-23 16:37 50.21068 14.08089 8316 ft 123 kts 295°
2026-04-23 16:38 50.21407 14.06785 8414 ft 141 kts 296°
2026-04-23 16:38 50.21901 14.05355 8386 ft 161 kts 303°
2026-04-23 16:38 50.22555 14.03803 8286 ft 177 kts 304°
2026-04-23 16:38 50.23244 14.02139 8209 ft 185 kts 305°
2026-04-23 16:39 50.24010 14.00505 8179 ft 189 kts 311°
2026-04-23 16:39 50.24880 13.98996 8234 ft 188 kts 311°
2026-04-23 16:39 50.25154 13.98290 8270 ft 186 kts 296°
2026-04-23 16:39 50.25398 13.96784 8305 ft 185 kts 277°
2026-04-23 16:40 50.25232 13.94747 8096 ft 197 kts 250°
2026-04-23 16:40 50.24401 13.93119 8125 ft 193 kts 225°
2026-04-23 16:40 50.23415 13.91660 8136 ft 193 kts 225°
2026-04-23 16:40 50.22501 13.90306 8129 ft 172 kts 227°
2026-04-23 16:41 50.21791 13.88956 8129 ft 154 kts 236°
2026-04-23 16:41 50.21186 13.87450 8151 ft 171 kts 242°
2026-04-23 16:41 50.20630 13.85740 8149 ft 182 kts 246°
2026-04-23 16:41 50.20113 13.83891 8147 ft 190 kts 248°
2026-04-23 16:42 50.19617 13.81954 8145 ft 195 kts 250°
2026-04-23 16:42 50.19138 13.79933 8165 ft 197 kts 251°
2026-04-23 16:42 50.18679 13.77900 8202 ft 198 kts 252°
2026-04-23 16:42 50.18230 13.75862 8237 ft 199 kts 252°
2026-04-23 16:43 50.17795 13.73849 8270 ft 199 kts 252°
2026-04-23 16:43 50.17489 13.72424 8292 ft 199 kts 252°
2026-04-23 16:43 50.16902 13.69678 8329 ft 200 kts 252°
2026-04-23 16:43 50.16465 13.67630 8354 ft 200 kts 252°
2026-04-23 16:44 50.16019 13.65561 8378 ft 200 kts 252°
2026-04-23 16:44 50.15570 13.63474 8400 ft 201 kts 252°
2026-04-23 16:44 50.15277 13.62111 8413 ft 201 kts 252°
2026-04-23 16:44 50.14683 13.59324 8439 ft 201 kts 252°
2026-04-23 16:45 50.14389 13.57947 8450 ft 201 kts 252°
2026-04-23 16:45 50.13786 13.55147 8299 ft 210 kts 252°
2026-04-23 16:45 50.13344 13.53073 8114 ft 211 kts 255°
2026-04-23 16:45 50.13037 13.50815 7849 ft 199 kts 263°
2026-04-23 16:46 50.12833 13.48734 7467 ft 196 kts 264°
2026-04-23 16:46 50.12723 13.46628 7018 ft 197 kts 266°
2026-04-23 16:46 50.12569 13.44520 6649 ft 193 kts 262°
2026-04-23 16:46 50.12306 13.42525 6338 ft 188 kts 257°
2026-04-23 16:47 50.11894 13.40591 5945 ft 188 kts 249°
2026-04-23 16:47 50.11307 13.38779 5582 ft 187 kts 240°
2026-04-23 16:47 50.10552 13.37162 5277 ft 183 kts 234°
2026-04-23 16:47 50.09841 13.35534 4960 ft 181 kts 240°
2026-04-23 16:48 50.09223 13.33819 4629 ft 180 kts 245°
2026-04-23 16:48 50.08815 13.32011 4357 ft 176 kts 263°
2026-04-23 16:48 50.09112 13.30249 4283 ft 162 kts 310°
2026-04-23 16:48 50.09980 13.29265 4318 ft 146 kts 329°
2026-04-23 16:49 50.10530 13.28710 4343 ft 136 kts 320°
2026-04-23 16:49 50.10796 13.27588 4814 ft 88 kts 259°
2026-04-23 16:49 50.10429 13.26802 4782 ft 86 kts 202°
2026-04-23 16:49 50.10005 13.26080 4738 ft 88 kts 260°
2026-04-23 16:50 50.10094 13.25242 4740 ft 87 kts 305°
2026-04-23 16:50 50.10512 13.24543 4706 ft 90 kts 313°
2026-04-23 16:50 50.10921 13.23781 4698 ft 95 kts 308°
2026-04-23 16:50 50.11326 13.22890 4698 ft 103 kts 304°
2026-04-23 16:51 50.11715 13.21915 4695 ft 110 kts 301°
2026-04-23 16:51 50.12109 13.20813 4698 ft 123 kts 299°
2026-04-23 16:51 50.12519 13.19560 4685 ft 135 kts 297°
2026-04-23 16:51 50.12942 13.18182 4624 ft 147 kts 296°
2026-04-23 16:52 50.13386 13.16670 4553 ft 156 kts 295°
2026-04-23 16:52 50.13834 13.15097 4477 ft 161 kts 295°
2026-04-23 16:52 50.14290 13.13479 4396 ft 165 kts 294°
2026-04-23 16:52 50.14737 13.11817 4324 ft 167 kts 292°
2026-04-23 16:53 50.15189 13.10135 4251 ft 169 kts 293°
2026-04-23 16:53 50.15654 13.08433 4082 ft 174 kts 293°
2026-04-23 16:53 50.16114 13.06762 3869 ft 160 kts 293°
2026-04-23 16:53 50.16535 13.05234 3667 ft 148 kts 293°
2026-04-23 16:54 50.16931 13.03797 3478 ft 140 kts 293°
2026-04-23 16:54 50.17303 13.02443 3298 ft 131 kts 293°
2026-04-23 16:54 50.17637 13.01231 3126 ft 115 kts 293°
2026-04-23 16:54 50.17936 13.00143 2974 ft 104 kts 293°
2026-04-23 16:55 50.18122 12.99467 2916 ft 94 kts 293°
2026-04-23 16:55 50.18463 12.98228 2818 ft 90 kts 293°
2026-04-23 16:55 50.18708 12.97336 2662 ft 90 kts 293°
2026-04-23 16:55 50.18945 12.96448 2536 ft 88 kts 293°
2026-04-23 16:56 50.19201 12.95546 2435 ft 91 kts 295°
2026-04-23 16:56 50.19468 12.94649 2308 ft 92 kts 294°
2026-04-23 16:56 50.19635 12.94036 2186 ft 92 kts 292°
2026-04-23 16:56 50.19947 12.92841 2033 ft 85 kts 292°
2026-04-23 16:57 50.20163 12.92033 1980 ft 70 kts 294°
2026-04-23 16:57 50.20291 12.91572 1967 ft 40 kts 293°
2026-04-23 16:57 50.20368 12.91303 1965 ft 9 kts 282°
2026-04-23 16:57 50.20340 12.91233 1966 ft 6 kts 207°
2026-04-23 16:58 50.20299 12.91205 1967 ft 8 kts 201°
2026-04-23 16:58 50.20238 12.91151 1966 ft 10 kts 204°
2026-04-23 16:58 50.20200 12.91126 1966 ft 3 kts 201°
2026-04-23 16:58 50.20193 12.91122 1966 ft 0 kts 201°